date,time,SUV Intensity [MED/Hr],UV Index,Daily total [MED],Since Last [MED]
26/07/2023,23:59:24,-0.001,0.0,9.733,9.733
27/07/2023,00:00:24,0.000,0.0,0.0,-9.733
27/07/2023,00:01:24,0.000,0.0,0.0,0.0
27/07/2023,00:02:25,0.000,0.0,0.0,0.0
27/07/2023,00:03:24,-0.000,0.0,0.0,0.0
27/07/2023,00:04:24,0.000,0.0,0.0,0.0
27/07/2023,00:05:24,-0.000,0.0,0.0,0.0
27/07/2023,00:06:24,0.000,0.0,0.0,0.0
27/07/2023,00:07:24,-0.000,0.0,0.0,0.0
27/07/2023,00:08:24,-0.000,0.0,0.0,0.0
27/07/2023,00:09:24,0.000,0.0,0.0,0.0
27/07/2023,00:10:24,-0.000,0.0,0.0,0.0
27/07/2023,00:11:24,0.000,0.0,0.0,0.0
27/07/2023,00:12:24,-0.000,0.0,0.0,0.0
27/07/2023,00:13:24,0.000,0.0,0.0,0.0
27/07/2023,00:14:24,-0.000,0.0,0.0,0.0
27/07/2023,00:15:24,0.000,0.0,0.0,0.0
27/07/2023,00:16:24,-0.000,0.0,0.0,0.0
27/07/2023,00:17:24,0.000,0.0,0.0,0.0
27/07/2023,00:18:24,-0.000,0.0,0.0,0.0
27/07/2023,00:19:25,0.000,0.0,0.0,0.0
27/07/2023,00:20:24,0.000,0.0,0.0,0.0
27/07/2023,00:21:24,-0.000,0.0,0.0,0.0
27/07/2023,00:22:25,0.000,0.0,0.0,0.0
27/07/2023,00:23:24,-0.000,0.0,0.0,0.0
27/07/2023,00:24:24,0.000,0.0,0.0,0.0
27/07/2023,00:25:24,-0.000,0.0,0.0,0.0
27/07/2023,00:26:24,-0.000,0.0,0.0,0.0
27/07/2023,00:27:24,0.000,0.0,0.0,0.0
27/07/2023,00:28:24,0.000,0.0,0.0,0.0
27/07/2023,00:29:24,-0.000,0.0,0.0,0.0
27/07/2023,00:30:24,-0.000,0.0,0.0,0.0
27/07/2023,00:31:24,0.001,0.0,0.0,0.0
27/07/2023,00:32:24,0.000,0.0,0.0,0.0
27/07/2023,00:33:24,0.000,0.0,0.0,0.0
27/07/2023,00:34:24,0.000,0.0,0.0,0.0
27/07/2023,00:35:24,0.000,0.0,0.0,0.0
27/07/2023,00:36:24,0.000,0.0,0.0,0.0
27/07/2023,00:37:24,0.000,0.0,0.0,0.0
27/07/2023,00:38:24,0.000,0.0,0.0,0.0
27/07/2023,00:39:24,0.000,0.0,0.0,0.0
27/07/2023,00:40:24,0.000,0.0,0.0,0.0
27/07/2023,00:41:24,-0.000,0.0,0.0,0.0
27/07/2023,00:42:24,0.000,0.0,0.0,0.0
27/07/2023,00:43:24,0.000,0.0,0.0,0.0
27/07/2023,00:44:23,0.000,0.0,0.0,0.0
27/07/2023,00:45:24,-0.000,0.0,0.0,0.0
27/07/2023,00:46:24,-0.000,0.0,0.0,0.0
27/07/2023,00:47:24,-0.000,0.0,0.0,0.0
27/07/2023,00:48:24,-0.000,0.0,0.0,0.0
27/07/2023,00:49:24,-0.000,0.0,0.0,0.0
27/07/2023,00:50:24,-0.000,0.0,0.0,0.0
27/07/2023,00:51:24,0.000,0.0,0.0,0.0
27/07/2023,00:52:24,0.000,0.0,0.0,0.0
27/07/2023,00:53:24,0.000,0.0,0.0,0.0
27/07/2023,00:54:24,-0.000,0.0,0.0,0.0
27/07/2023,00:55:25,0.000,0.0,0.0,0.0
27/07/2023,00:56:24,-0.000,0.0,0.0,0.0
27/07/2023,00:57:24,-0.000,0.0,0.0,0.0
27/07/2023,00:58:24,0.000,0.0,0.0,0.0
27/07/2023,00:59:24,-0.000,0.0,0.0,0.0
27/07/2023,01:00:24,-0.000,0.0,0.0,0.0
27/07/2023,01:01:24,-0.000,0.0,0.0,0.0
27/07/2023,01:02:24,-0.000,0.0,0.0,0.0
27/07/2023,01:03:24,-0.000,0.0,0.0,0.0
27/07/2023,01:04:24,-0.000,0.0,0.0,0.0
27/07/2023,01:05:24,-0.000,0.0,0.0,0.0
27/07/2023,01:06:24,-0.000,0.0,0.0,0.0
27/07/2023,01:07:24,-0.000,0.0,0.0,0.0
27/07/2023,01:08:25,0.000,0.0,0.0,0.0
27/07/2023,01:09:24,-0.000,0.0,0.0,0.0
27/07/2023,01:10:24,-0.000,0.0,0.0,0.0
27/07/2023,01:11:24,-0.000,0.0,0.0,0.0
27/07/2023,01:12:25,-0.000,0.0,0.0,0.0
27/07/2023,01:13:24,-0.000,0.0,0.0,0.0
27/07/2023,01:14:24,-0.000,0.0,0.0,0.0
27/07/2023,01:15:24,-0.000,0.0,0.0,0.0
27/07/2023,01:16:24,-0.000,0.0,0.0,0.0
27/07/2023,01:17:25,-0.000,0.0,0.0,0.0
27/07/2023,01:18:25,-0.000,0.0,0.0,0.0
27/07/2023,01:19:24,-0.000,0.0,0.0,0.0
27/07/2023,01:20:24,-0.000,0.0,0.0,0.0
27/07/2023,01:21:25,-0.000,0.0,0.0,0.0
27/07/2023,01:22:24,-0.000,0.0,0.0,0.0
27/07/2023,01:23:24,-0.000,0.0,0.0,0.0
27/07/2023,01:24:24,-0.000,0.0,0.0,0.0
27/07/2023,01:25:24,-0.000,0.0,0.0,0.0
27/07/2023,01:26:24,-0.000,0.0,0.0,0.0
27/07/2023,01:27:24,-0.000,0.0,0.0,0.0
27/07/2023,01:28:24,-0.000,0.0,0.0,0.0
27/07/2023,01:29:24,-0.000,0.0,0.0,0.0
27/07/2023,01:30:24,-0.000,0.0,0.0,0.0
27/07/2023,01:31:25,-0.000,0.0,0.0,0.0
27/07/2023,01:32:24,-0.000,0.0,0.0,0.0
27/07/2023,01:33:24,-0.000,0.0,0.0,0.0
27/07/2023,01:34:25,-0.000,0.0,0.0,0.0
27/07/2023,01:35:24,-0.000,0.0,0.0,0.0
27/07/2023,01:36:25,-0.000,0.0,0.0,0.0
27/07/2023,01:37:24,-0.000,0.0,0.0,0.0
27/07/2023,01:38:25,-0.000,0.0,0.0,0.0
27/07/2023,01:39:24,-0.000,0.0,0.0,0.0
27/07/2023,01:40:24,-0.000,0.0,0.0,0.0
27/07/2023,01:41:24,-0.000,0.0,0.0,0.0
27/07/2023,01:42:25,-0.000,0.0,0.0,0.0
27/07/2023,01:43:24,-0.000,0.0,0.0,0.0
27/07/2023,01:44:24,-0.000,0.0,0.0,0.0
27/07/2023,01:45:24,-0.000,0.0,0.0,0.0
27/07/2023,01:46:23,-0.000,0.0,0.0,0.0
27/07/2023,01:47:24,-0.000,0.0,0.0,0.0
27/07/2023,01:48:25,-0.000,0.0,0.0,0.0
27/07/2023,01:49:24,-0.000,0.0,0.0,0.0
27/07/2023,01:50:24,-0.000,0.0,0.0,0.0
27/07/2023,01:51:24,-0.000,0.0,0.0,0.0
27/07/2023,01:52:25,-0.000,0.0,0.0,0.0
27/07/2023,01:53:26,-0.000,0.0,0.0,0.0
27/07/2023,01:54:25,-0.000,0.0,0.0,0.0
27/07/2023,01:55:25,-0.000,0.0,0.0,0.0
27/07/2023,01:56:24,-0.000,0.0,0.0,0.0
27/07/2023,01:57:24,-0.000,0.0,0.0,0.0
27/07/2023,01:58:25,-0.000,0.0,0.0,0.0
27/07/2023,01:59:24,-0.000,0.0,0.0,0.0
27/07/2023,02:00:24,-0.000,0.0,0.0,0.0
27/07/2023,02:01:24,-0.000,0.0,0.0,0.0
27/07/2023,02:02:25,-0.000,0.0,0.0,0.0
27/07/2023,02:03:24,-0.000,0.0,0.0,0.0
27/07/2023,02:04:24,-0.000,0.0,0.0,0.0
27/07/2023,02:05:24,-0.001,0.0,0.0,0.0
27/07/2023,02:06:24,-0.000,0.0,0.0,0.0
27/07/2023,02:07:24,-0.000,0.0,0.0,0.0
27/07/2023,02:08:24,-0.000,0.0,0.0,0.0
27/07/2023,02:09:26,-0.000,0.0,0.0,0.0
27/07/2023,02:10:25,-0.000,0.0,0.0,0.0
27/07/2023,02:11:23,-0.000,0.0,0.0,0.0
27/07/2023,02:12:24,-0.000,0.0,0.0,0.0
27/07/2023,02:13:24,-0.000,0.0,0.0,0.0
27/07/2023,02:14:25,-0.000,0.0,0.0,0.0
27/07/2023,02:15:25,-0.000,0.0,0.0,0.0
27/07/2023,02:16:24,-0.000,0.0,0.0,0.0
27/07/2023,02:17:24,-0.000,0.0,0.0,0.0
27/07/2023,02:18:24,-0.000,0.0,0.0,0.0
27/07/2023,02:19:24,-0.000,0.0,0.0,0.0
27/07/2023,02:20:24,-0.000,0.0,0.0,0.0
27/07/2023,02:21:25,-0.001,0.0,0.0,0.0
27/07/2023,02:22:24,-0.000,0.0,0.0,0.0
27/07/2023,02:23:24,-0.000,0.0,0.0,0.0
27/07/2023,02:24:24,-0.000,0.0,0.0,0.0
27/07/2023,02:25:24,-0.000,0.0,0.0,0.0
27/07/2023,02:26:24,-0.000,0.0,0.0,0.0
27/07/2023,02:27:24,-0.000,0.0,0.0,0.0
27/07/2023,02:28:24,-0.000,0.0,0.0,0.0
27/07/2023,02:29:24,-0.000,0.0,0.0,0.0
27/07/2023,02:30:24,-0.000,0.0,0.0,0.0
27/07/2023,02:31:24,-0.000,0.0,0.0,0.0
27/07/2023,02:32:24,-0.001,0.0,0.0,0.0
27/07/2023,02:33:24,-0.000,0.0,0.0,0.0
27/07/2023,02:34:25,-0.000,0.0,0.0,0.0
27/07/2023,02:35:24,-0.000,0.0,0.0,0.0
27/07/2023,02:36:25,-0.001,0.0,0.0,0.0
27/07/2023,02:37:24,-0.001,0.0,0.0,0.0
27/07/2023,02:38:25,-0.001,0.0,0.0,0.0
27/07/2023,02:39:25,-0.000,0.0,0.0,0.0
27/07/2023,02:40:24,-0.000,0.0,0.0,0.0
27/07/2023,02:41:25,-0.000,0.0,0.0,0.0
27/07/2023,02:42:25,-0.000,0.0,0.0,0.0
27/07/2023,02:43:24,-0.000,0.0,0.0,0.0
27/07/2023,02:44:25,-0.000,0.0,0.0,0.0
27/07/2023,02:45:25,-0.000,0.0,0.0,0.0
27/07/2023,02:46:24,-0.000,0.0,0.0,0.0
27/07/2023,02:47:24,-0.000,0.0,0.0,0.0
27/07/2023,02:48:25,-0.001,0.0,0.0,0.0
27/07/2023,02:49:24,-0.000,0.0,0.0,0.0
27/07/2023,02:50:24,-0.000,0.0,0.0,0.0
27/07/2023,02:51:25,-0.000,0.0,0.0,0.0
27/07/2023,02:52:25,-0.000,0.0,0.0,0.0
27/07/2023,02:53:24,-0.000,0.0,0.0,0.0
27/07/2023,02:54:24,-0.000,0.0,0.0,0.0
27/07/2023,02:55:25,-0.000,0.0,0.0,0.0
27/07/2023,02:56:24,-0.000,0.0,0.0,0.0
27/07/2023,02:57:24,-0.000,0.0,0.0,0.0
27/07/2023,02:58:25,-0.001,0.0,0.0,0.0
27/07/2023,02:59:25,-0.000,0.0,0.0,0.0
27/07/2023,03:00:24,-0.000,0.0,0.0,0.0
27/07/2023,03:01:24,-0.000,0.0,0.0,0.0
27/07/2023,03:02:25,-0.000,0.0,0.0,0.0
27/07/2023,03:03:24,-0.000,0.0,0.0,0.0
27/07/2023,03:04:24,-0.000,0.0,0.0,0.0
27/07/2023,03:05:24,-0.001,0.0,0.0,0.0
27/07/2023,03:06:24,-0.000,0.0,0.0,0.0
27/07/2023,03:07:24,-0.000,0.0,0.0,0.0
27/07/2023,03:08:25,-0.000,0.0,0.0,0.0
27/07/2023,03:09:24,-0.000,0.0,0.0,0.0
27/07/2023,03:10:24,-0.000,0.0,0.0,0.0
27/07/2023,03:11:24,-0.000,0.0,0.0,0.0
27/07/2023,03:12:25,-0.000,0.0,0.0,0.0
27/07/2023,03:13:24,-0.000,0.0,0.0,0.0
27/07/2023,03:14:24,-0.000,0.0,0.0,0.0
27/07/2023,03:15:25,-0.000,0.0,0.0,0.0
27/07/2023,03:16:24,-0.000,0.0,0.0,0.0
27/07/2023,03:17:25,-0.000,0.0,0.0,0.0
27/07/2023,03:18:25,-0.000,0.0,0.0,0.0
27/07/2023,03:19:24,-0.001,0.0,0.0,0.0
27/07/2023,03:20:24,-0.000,0.0,0.0,0.0
27/07/2023,03:21:25,-0.000,0.0,0.0,0.0
27/07/2023,03:22:24,-0.001,0.0,0.0,0.0
27/07/2023,03:23:24,-0.000,0.0,0.0,0.0
27/07/2023,03:24:24,-0.002,0.0,0.0,0.0
27/07/2023,03:25:24,-0.001,0.0,0.0,0.0
27/07/2023,03:26:25,-0.001,0.0,0.0,0.0
27/07/2023,03:27:24,-0.001,0.0,0.0,0.0
27/07/2023,03:28:24,-0.001,0.0,0.0,0.0
27/07/2023,03:29:24,-0.001,0.0,0.0,0.0
27/07/2023,03:30:24,-0.001,0.0,0.0,0.0
27/07/2023,03:31:25,-0.001,0.0,0.0,0.0
27/07/2023,03:32:24,-0.001,0.0,0.0,0.0
27/07/2023,03:33:24,-0.000,0.0,0.0,0.0
27/07/2023,03:34:25,-0.001,0.0,0.0,0.0
27/07/2023,03:35:24,-0.001,0.0,0.0,0.0
27/07/2023,03:36:24,-0.001,0.0,0.0,0.0
27/07/2023,03:37:25,-0.001,0.0,0.0,0.0
27/07/2023,03:38:24,-0.001,0.0,0.0,0.0
27/07/2023,03:39:25,-0.000,0.0,0.0,0.0
27/07/2023,03:40:23,-0.001,0.0,0.0,0.0
27/07/2023,03:41:25,-0.000,0.0,0.0,0.0
27/07/2023,03:42:24,-0.001,0.0,0.0,0.0
27/07/2023,03:43:24,-0.001,0.0,0.0,0.0
27/07/2023,03:44:25,-0.001,0.0,0.0,0.0
27/07/2023,03:45:24,-0.001,0.0,0.0,0.0
27/07/2023,03:46:24,-0.000,0.0,0.0,0.0
27/07/2023,03:47:25,-0.000,0.0,0.0,0.0
27/07/2023,03:48:24,-0.000,0.0,0.0,0.0
27/07/2023,03:49:25,-0.000,0.0,0.0,0.0
27/07/2023,03:50:24,-0.001,0.0,0.0,0.0
27/07/2023,03:51:25,-0.001,0.0,0.0,0.0
27/07/2023,03:52:25,-0.001,0.0,0.0,0.0
27/07/2023,03:53:24,-0.001,0.0,0.0,0.0
27/07/2023,03:54:25,-0.001,0.0,0.0,0.0
27/07/2023,03:55:24,-0.001,0.0,0.0,0.0
27/07/2023,03:56:25,-0.001,0.0,0.0,0.0
27/07/2023,03:57:25,-0.001,0.0,0.0,0.0
27/07/2023,03:58:25,-0.000,0.0,0.0,0.0
27/07/2023,03:59:24,-0.001,0.0,0.0,0.0
27/07/2023,04:00:25,-0.001,0.0,0.0,0.0
27/07/2023,04:01:25,-0.000,0.0,0.0,0.0
27/07/2023,04:02:25,-0.001,0.0,0.0,0.0
27/07/2023,04:03:24,-0.001,0.0,0.0,0.0
27/07/2023,04:04:24,-0.000,0.0,0.0,0.0
27/07/2023,04:05:25,-0.000,0.0,0.0,0.0
27/07/2023,04:06:24,-0.000,0.0,0.0,0.0
27/07/2023,04:07:24,-0.000,0.0,0.0,0.0
27/07/2023,04:08:25,-0.000,0.0,0.0,0.0
27/07/2023,04:09:24,-0.000,0.0,0.0,0.0
27/07/2023,04:10:24,-0.000,0.0,0.0,0.0
27/07/2023,04:11:25,-0.000,0.0,0.0,0.0
27/07/2023,04:12:24,-0.000,0.0,0.0,0.0
27/07/2023,04:13:25,-0.000,0.0,0.0,0.0
27/07/2023,04:14:24,-0.000,0.0,0.0,0.0
27/07/2023,04:15:25,0.000,0.0,0.0,0.0
27/07/2023,04:16:24,0.000,0.0,0.0,0.0
27/07/2023,04:17:24,0.001,0.0,0.0,0.0
27/07/2023,04:18:24,-0.000,0.0,0.0,0.0
27/07/2023,04:19:24,-0.000,0.0,0.0,0.0
27/07/2023,04:20:25,0.000,0.0,0.0,0.0
27/07/2023,04:21:25,0.001,0.0,0.0,0.0
27/07/2023,04:22:24,0.001,0.0,0.0,0.0
27/07/2023,04:23:24,0.002,0.0,0.0,0.0
27/07/2023,04:24:24,0.002,0.0,0.0,0.0
27/07/2023,04:25:24,0.002,0.0,0.0,0.0
27/07/2023,04:26:25,0.001,0.0,0.0,0.0
27/07/2023,04:27:24,0.001,0.0,0.0,0.0
27/07/2023,04:28:24,0.001,0.0,0.0,0.0
27/07/2023,04:29:24,0.002,0.0,0.0,0.0
27/07/2023,04:30:24,0.003,0.0,0.0,0.0
27/07/2023,04:31:25,0.003,0.0,0.0,0.0
27/07/2023,04:32:24,0.003,0.0,0.0,0.0
27/07/2023,04:33:25,0.003,0.0,0.0,0.0
27/07/2023,04:34:24,0.003,0.0,0.0,0.0
27/07/2023,04:35:24,0.003,0.0,0.0,0.0
27/07/2023,04:36:25,0.003,0.0,0.0,0.0
27/07/2023,04:37:24,0.003,0.0,0.0,0.0
27/07/2023,04:38:24,0.003,0.0,0.0,0.0
27/07/2023,04:39:25,0.002,0.0,0.0,0.0
27/07/2023,04:40:24,0.003,0.0,0.0,0.0
27/07/2023,04:41:24,0.003,0.0,0.0,0.0
27/07/2023,04:42:25,0.003,0.0,0.0,0.0
27/07/2023,04:43:24,0.002,0.0,0.0,0.0
27/07/2023,04:44:25,0.004,0.0,0.0,0.0
27/07/2023,04:45:25,0.004,0.0,0.0,0.0
27/07/2023,04:46:24,0.004,0.0,0.0,0.0
27/07/2023,04:47:25,0.005,0.0,0.0,0.0
27/07/2023,04:48:25,0.005,0.0,0.0,0.0
27/07/2023,04:49:24,0.006,0.0,0.0,0.0
27/07/2023,04:50:24,0.007,0.0,0.0,0.0
27/07/2023,04:51:25,0.008,0.0,0.0,0.0
27/07/2023,04:52:24,0.007,0.0,0.0,0.0
27/07/2023,04:53:24,0.008,0.0,0.001,0.001
27/07/2023,04:54:25,0.008,0.0,0.001,0.0
27/07/2023,04:55:24,0.008,0.0,0.001,0.0
27/07/2023,04:56:25,0.009,0.0,0.001,0.0
27/07/2023,04:57:24,0.010,0.0,0.001,0.0
27/07/2023,04:58:24,0.011,0.0,0.001,0.0
27/07/2023,04:59:25,0.012,0.0,0.001,0.0
27/07/2023,05:00:24,0.013,0.0,0.002,0.001
27/07/2023,05:01:25,0.013,0.0,0.002,0.0
27/07/2023,05:02:25,0.013,0.0,0.002,0.0
27/07/2023,05:03:25,0.013,0.0,0.002,0.0
27/07/2023,05:04:25,0.014,0.0,0.003,0.001
27/07/2023,05:05:25,0.013,0.0,0.003,0.0
27/07/2023,05:06:25,0.012,0.0,0.003,0.0
27/07/2023,05:07:24,0.012,0.0,0.003,0.0
27/07/2023,05:08:24,0.009,0.0,0.003,0.0
27/07/2023,05:09:24,0.011,0.0,0.004,0.001
27/07/2023,05:10:25,0.011,0.0,0.004,0.0
27/07/2023,05:11:24,0.012,0.0,0.004,0.0
27/07/2023,05:12:24,0.012,0.0,0.004,0.0
27/07/2023,05:13:25,0.012,0.0,0.004,0.0
27/07/2023,05:14:25,0.011,0.0,0.005,0.001
27/07/2023,05:15:24,0.011,0.0,0.005,0.0
27/07/2023,05:16:25,0.013,0.0,0.005,0.0
27/07/2023,05:17:25,0.016,0.0,0.005,0.0
27/07/2023,05:18:25,0.018,0.0,0.005,0.0
27/07/2023,05:19:25,0.018,0.0,0.006,0.001
27/07/2023,05:20:24,0.017,0.0,0.006,0.0
27/07/2023,05:21:25,0.015,0.0,0.006,0.0
27/07/2023,05:22:24,0.015,0.0,0.007,0.001
27/07/2023,05:23:24,0.015,0.0,0.007,0.0
27/07/2023,05:24:24,0.017,0.0,0.007,0.0
27/07/2023,05:25:25,0.016,0.0,0.007,0.0
27/07/2023,05:26:24,0.016,0.0,0.008,0.001
27/07/2023,05:27:24,0.017,0.0,0.008,0.0
27/07/2023,05:28:25,0.017,0.0,0.008,0.0
27/07/2023,05:29:25,0.016,0.0,0.008,0.0
27/07/2023,05:30:24,0.016,0.0,0.009,0.001
27/07/2023,05:31:24,0.018,0.0,0.009,0.0
27/07/2023,05:32:24,0.018,0.0,0.009,0.0
27/07/2023,05:33:25,0.019,0.0,0.01,0.001
27/07/2023,05:34:24,0.020,0.0,0.01,0.0
27/07/2023,05:35:25,0.021,0.0,0.01,0.0
27/07/2023,05:36:24,0.023,0.0,0.011,0.001
27/07/2023,05:37:24,0.024,0.0,0.011,0.0
27/07/2023,05:38:25,0.028,0.0,0.011,0.0
27/07/2023,05:39:25,0.027,0.0,0.012,0.001
27/07/2023,05:40:24,0.028,0.0,0.012,0.0
27/07/2023,05:41:25,0.033,0.0,0.013,0.001
27/07/2023,05:42:25,0.035,0.0,0.013,0.0
27/07/2023,05:43:24,0.035,0.0,0.014,0.001
27/07/2023,05:44:25,0.035,0.0,0.015,0.001
27/07/2023,05:45:24,0.036,0.0,0.015,0.0
27/07/2023,05:46:24,0.033,0.0,0.016,0.001
27/07/2023,05:47:25,0.035,0.0,0.016,0.0
27/07/2023,05:48:24,0.039,0.0,0.017,0.001
27/07/2023,05:49:25,0.039,0.0,0.018,0.001
27/07/2023,05:50:25,0.039,0.0,0.018,0.0
27/07/2023,05:51:25,0.040,0.0,0.019,0.001
27/07/2023,05:52:25,0.040,0.0,0.02,0.001
27/07/2023,05:53:24,0.040,0.0,0.02,0.0
27/07/2023,05:54:25,0.040,0.0,0.021,0.001
27/07/2023,05:55:24,0.042,0.0,0.022,0.001
27/07/2023,05:56:25,0.040,0.0,0.022,0.0
27/07/2023,05:57:25,0.043,0.0,0.023,0.001
27/07/2023,05:58:25,0.046,0.0,0.024,0.001
27/07/2023,05:59:24,0.047,0.0,0.024,0.0
27/07/2023,06:00:24,0.048,0.0,0.025,0.001
27/07/2023,06:01:25,0.053,0.0,0.026,0.001
27/07/2023,06:02:24,0.056,0.0,0.027,0.001
27/07/2023,06:03:25,0.054,0.0,0.028,0.001
27/07/2023,06:04:25,0.055,0.0,0.029,0.001
27/07/2023,06:05:24,0.059,0.0,0.03,0.001
27/07/2023,06:06:25,0.053,0.0,0.031,0.001
27/07/2023,06:07:27,0.061,0.0,0.032,0.001
27/07/2023,06:08:24,0.062,0.0,0.033,0.001
27/07/2023,06:09:24,0.061,0.0,0.034,0.001
27/07/2023,06:10:25,0.063,0.0,0.035,0.001
27/07/2023,06:11:25,0.066,0.0,0.036,0.001
27/07/2023,06:12:29,0.064,0.0,0.037,0.001
27/07/2023,06:13:26,0.068,0.0,0.038,0.001
27/07/2023,06:14:24,0.072,0.0,0.039,0.001
27/07/2023,06:15:25,0.077,0.0,0.04,0.001
27/07/2023,06:16:25,0.086,0.0,0.042,0.002
27/07/2023,06:17:24,0.088,0.0,0.043,0.001
27/07/2023,06:18:25,0.087,0.0,0.045,0.002
27/07/2023,06:19:25,0.092,0.0,0.046,0.001
27/07/2023,06:20:24,0.084,0.0,0.048,0.002
27/07/2023,06:21:24,0.083,0.0,0.049,0.001
27/07/2023,06:22:25,0.088,0.0,0.05,0.001
27/07/2023,06:23:25,0.088,0.0,0.052,0.002
27/07/2023,06:24:24,0.087,0.0,0.053,0.001
27/07/2023,06:25:24,0.088,0.0,0.055,0.002
27/07/2023,06:26:25,0.090,0.0,0.056,0.001
27/07/2023,06:27:25,0.098,0.0,0.058,0.002
27/07/2023,06:28:25,0.105,0.0,0.06,0.002
27/07/2023,06:29:25,0.105,0.0,0.061,0.001
27/07/2023,06:30:24,0.110,0.0,0.063,0.002
27/07/2023,06:31:25,0.116,0.0,0.065,0.002
27/07/2023,06:32:25,0.116,0.0,0.067,0.002
27/07/2023,06:33:25,0.115,0.0,0.069,0.002
27/07/2023,06:34:25,0.113,0.0,0.071,0.002
27/07/2023,06:35:25,0.111,0.0,0.073,0.002
27/07/2023,06:36:25,0.104,0.0,0.074,0.001
27/07/2023,06:37:25,0.098,0.0,0.076,0.002
27/07/2023,06:38:24,0.104,0.0,0.078,0.002
27/07/2023,06:39:25,0.107,0.0,0.079,0.001
27/07/2023,06:40:24,0.114,0.0,0.081,0.002
27/07/2023,06:41:24,0.118,0.0,0.083,0.002
27/07/2023,06:42:24,0.113,0.0,0.085,0.002
27/07/2023,06:43:47,0.117,0.0,0.088,0.003
27/07/2023,06:45:25,0.120,0.0,0.091,0.003
27/07/2023,06:46:25,0.110,0.0,0.093,0.002
27/07/2023,06:47:25,0.129,0.0,0.095,0.002
27/07/2023,06:48:24,0.131,0.0,0.097,0.002
27/07/2023,06:49:24,0.125,0.0,0.099,0.002
27/07/2023,06:50:25,0.123,0.0,0.101,0.002
27/07/2023,06:51:24,0.113,0.0,0.103,0.002
27/07/2023,06:52:24,0.101,0.0,0.105,0.002
27/07/2023,06:53:25,0.116,0.0,0.107,0.002
27/07/2023,06:54:24,0.130,0.0,0.109,0.002
27/07/2023,06:55:25,0.135,0.0,0.111,0.002
27/07/2023,06:56:25,0.146,0.0,0.113,0.002
27/07/2023,06:57:24,0.166,0.0,0.116,0.003
27/07/2023,06:58:25,0.163,0.0,0.119,0.003
27/07/2023,06:59:24,0.164,0.0,0.122,0.003
27/07/2023,07:00:25,0.174,0.0,0.124,0.002
27/07/2023,07:01:24,0.175,0.0,0.127,0.003
27/07/2023,07:02:25,0.212,0.0,0.13,0.003
27/07/2023,07:03:25,0.239,1.0,0.134,0.004
27/07/2023,07:04:25,0.241,1.0,0.138,0.004
27/07/2023,07:05:24,0.245,1.0,0.142,0.004
27/07/2023,07:06:24,0.234,1.0,0.146,0.004
27/07/2023,07:07:25,0.230,1.0,0.15,0.004
27/07/2023,07:08:25,0.211,0.0,0.154,0.004
27/07/2023,07:09:24,0.170,0.0,0.157,0.003
27/07/2023,07:10:25,0.153,0.0,0.16,0.003
27/07/2023,07:11:24,0.151,0.0,0.162,0.002
27/07/2023,07:12:24,0.150,0.0,0.165,0.003
27/07/2023,07:13:25,0.149,0.0,0.167,0.002
27/07/2023,07:14:25,0.163,0.0,0.17,0.003
27/07/2023,07:15:24,0.157,0.0,0.173,0.003
27/07/2023,07:16:24,0.161,0.0,0.175,0.002
27/07/2023,07:17:24,0.164,0.0,0.178,0.003
27/07/2023,07:18:25,0.159,0.0,0.181,0.003
27/07/2023,07:19:25,0.165,0.0,0.183,0.002
27/07/2023,07:20:25,0.160,0.0,0.186,0.003
27/07/2023,07:21:25,0.157,0.0,0.189,0.003
27/07/2023,07:22:24,0.153,0.0,0.191,0.002
27/07/2023,07:23:25,0.140,0.0,0.194,0.003
27/07/2023,07:24:25,0.146,0.0,0.196,0.002
27/07/2023,07:25:25,0.161,0.0,0.199,0.003
27/07/2023,07:26:25,0.160,0.0,0.201,0.002
27/07/2023,07:27:25,0.156,0.0,0.204,0.003
27/07/2023,07:28:24,0.158,0.0,0.207,0.003
27/07/2023,07:29:25,0.164,0.0,0.209,0.002
27/07/2023,07:30:25,0.170,0.0,0.212,0.003
27/07/2023,07:31:25,0.166,0.0,0.215,0.003
27/07/2023,07:32:24,0.165,0.0,0.218,0.003
27/07/2023,07:33:24,0.160,0.0,0.22,0.002
27/07/2023,07:34:25,0.165,0.0,0.223,0.003
27/07/2023,07:35:24,0.164,0.0,0.226,0.003
27/07/2023,07:36:25,0.167,0.0,0.228,0.002
27/07/2023,07:37:24,0.181,0.0,0.231,0.003
27/07/2023,07:38:25,0.204,0.0,0.235,0.004
27/07/2023,07:39:25,0.182,0.0,0.238,0.003
27/07/2023,07:40:25,0.181,0.0,0.241,0.003
27/07/2023,07:41:25,0.186,0.0,0.244,0.003
27/07/2023,07:42:25,0.181,0.0,0.247,0.003
27/07/2023,07:43:25,0.187,0.0,0.25,0.003
27/07/2023,07:44:24,0.208,0.0,0.253,0.003
27/07/2023,07:45:25,0.225,1.0,0.257,0.004
27/07/2023,07:46:25,0.213,0.0,0.261,0.004
27/07/2023,07:47:25,0.210,0.0,0.264,0.003
27/07/2023,07:48:25,0.238,1.0,0.268,0.004
27/07/2023,07:49:25,0.211,0.0,0.272,0.004
27/07/2023,07:50:25,0.179,0.0,0.275,0.003
27/07/2023,07:51:24,0.184,0.0,0.278,0.003
27/07/2023,07:52:25,0.213,0.0,0.281,0.003
27/07/2023,07:53:25,0.213,0.0,0.285,0.004
27/07/2023,07:54:24,0.219,1.0,0.288,0.003
27/07/2023,07:55:25,0.246,1.0,0.292,0.004
27/07/2023,07:56:24,0.265,1.0,0.296,0.004
27/07/2023,07:57:25,0.300,1.0,0.301,0.005
27/07/2023,07:58:25,0.298,1.0,0.306,0.005
27/07/2023,07:59:25,0.271,1.0,0.311,0.005
27/07/2023,08:00:25,0.252,1.0,0.315,0.004
27/07/2023,08:01:25,0.217,0.0,0.319,0.004
27/07/2023,08:02:25,0.188,0.0,0.322,0.003
27/07/2023,08:03:25,0.221,1.0,0.326,0.004
27/07/2023,08:04:25,0.260,1.0,0.33,0.004
27/07/2023,08:05:23,0.318,1.0,0.334,0.004
27/07/2023,08:06:25,0.353,1.0,0.34,0.006
27/07/2023,08:07:25,0.402,1.0,0.346,0.006
27/07/2023,08:08:26,0.396,1.0,0.353,0.007
27/07/2023,08:09:24,0.399,1.0,0.36,0.007
27/07/2023,08:10:25,0.360,1.0,0.366,0.006
27/07/2023,08:11:25,0.333,1.0,0.372,0.006
27/07/2023,08:12:24,0.361,1.0,0.378,0.006
27/07/2023,08:13:25,0.397,1.0,0.384,0.006
27/07/2023,08:14:25,0.401,1.0,0.391,0.007
27/07/2023,08:15:25,0.373,1.0,0.397,0.006
27/07/2023,08:16:25,0.372,1.0,0.403,0.006
27/07/2023,08:17:25,0.390,1.0,0.41,0.007
27/07/2023,08:18:25,0.362,1.0,0.416,0.006
27/07/2023,08:19:25,0.323,1.0,0.422,0.006
27/07/2023,08:20:25,0.331,1.0,0.427,0.005
27/07/2023,08:21:25,0.374,1.0,0.433,0.006
27/07/2023,08:22:25,0.395,1.0,0.44,0.007
27/07/2023,08:23:25,0.399,1.0,0.446,0.006
27/07/2023,08:24:25,0.391,1.0,0.453,0.007
27/07/2023,08:25:25,0.376,1.0,0.459,0.006
27/07/2023,08:26:25,0.403,1.0,0.465,0.006
27/07/2023,08:27:25,0.370,1.0,0.472,0.007
27/07/2023,08:28:25,0.358,1.0,0.478,0.006
27/07/2023,08:29:25,0.363,1.0,0.484,0.006
27/07/2023,08:30:25,0.408,1.0,0.491,0.007
27/07/2023,08:31:25,0.381,1.0,0.497,0.006
27/07/2023,08:32:25,0.363,1.0,0.503,0.006
27/07/2023,08:33:25,0.399,1.0,0.51,0.007
27/07/2023,08:34:25,0.370,1.0,0.516,0.006
27/07/2023,08:35:25,0.331,1.0,0.522,0.006
27/07/2023,08:36:25,0.275,1.0,0.527,0.005
27/07/2023,08:37:25,0.293,1.0,0.532,0.005
27/07/2023,08:38:25,0.284,1.0,0.537,0.005
27/07/2023,08:39:25,0.286,1.0,0.541,0.004
27/07/2023,08:40:25,0.338,1.0,0.546,0.005
27/07/2023,08:41:25,0.342,1.0,0.552,0.006
27/07/2023,08:42:25,0.328,1.0,0.558,0.006
27/07/2023,08:43:25,0.333,1.0,0.563,0.005
27/07/2023,08:44:25,0.325,1.0,0.569,0.006
27/07/2023,08:45:24,0.317,1.0,0.574,0.005
27/07/2023,08:46:25,0.339,1.0,0.58,0.006
27/07/2023,08:47:25,0.358,1.0,0.585,0.005
27/07/2023,08:48:24,0.340,1.0,0.591,0.006
27/07/2023,08:49:25,0.350,1.0,0.597,0.006
27/07/2023,08:50:25,0.412,1.0,0.603,0.006
27/07/2023,08:51:25,0.439,1.0,0.61,0.007
27/07/2023,08:52:25,0.476,1.0,0.618,0.008
27/07/2023,08:53:25,0.495,1.0,0.626,0.008
27/07/2023,08:54:25,0.459,1.0,0.634,0.008
27/07/2023,08:55:25,0.462,1.0,0.642,0.008
27/07/2023,08:56:25,0.451,1.0,0.649,0.007
27/07/2023,08:57:25,0.440,1.0,0.657,0.008
27/07/2023,08:58:25,0.383,1.0,0.664,0.007
27/07/2023,08:59:25,0.370,1.0,0.67,0.006
27/07/2023,09:00:25,0.385,1.0,0.676,0.006
27/07/2023,09:01:25,0.389,1.0,0.683,0.007
27/07/2023,09:02:25,0.396,1.0,0.689,0.006
27/07/2023,09:03:25,0.384,1.0,0.696,0.007
27/07/2023,09:04:25,0.399,1.0,0.702,0.006
27/07/2023,09:05:25,0.380,1.0,0.709,0.007
27/07/2023,09:06:25,0.400,1.0,0.715,0.006
27/07/2023,09:07:25,0.387,1.0,0.722,0.007
27/07/2023,09:08:25,0.366,1.0,0.728,0.006
27/07/2023,09:09:25,0.346,1.0,0.734,0.006
27/07/2023,09:10:25,0.380,1.0,0.74,0.006
27/07/2023,09:11:25,0.353,1.0,0.746,0.006
27/07/2023,09:12:25,0.320,1.0,0.752,0.006
27/07/2023,09:13:25,0.310,1.0,0.757,0.005
27/07/2023,09:14:25,0.323,1.0,0.762,0.005
27/07/2023,09:15:25,0.501,1.0,0.769,0.007
27/07/2023,09:16:25,0.511,1.0,0.778,0.009
27/07/2023,09:17:25,0.499,1.0,0.786,0.008
27/07/2023,09:18:25,0.538,1.0,0.795,0.009
27/07/2023,09:19:25,0.696,2.0,0.805,0.01
27/07/2023,09:20:25,0.756,2.0,0.818,0.013
27/07/2023,09:21:25,0.895,2.0,0.831,0.013
27/07/2023,09:22:25,0.884,2.0,0.846,0.015
27/07/2023,09:23:24,0.897,2.0,0.861,0.015
27/07/2023,09:24:25,0.887,2.0,0.876,0.015
27/07/2023,09:25:25,0.888,2.0,0.89,0.014
27/07/2023,09:26:25,1.094,3.0,0.907,0.017
27/07/2023,09:27:25,1.003,2.0,0.925,0.018
27/07/2023,09:28:25,0.975,2.0,0.942,0.017
27/07/2023,09:29:25,0.903,2.0,0.957,0.015
27/07/2023,09:30:25,0.868,2.0,0.971,0.014
27/07/2023,09:31:25,0.834,2.0,0.986,0.015
27/07/2023,09:32:25,0.742,2.0,0.999,0.013
27/07/2023,09:33:24,0.687,2.0,1.011,0.012
27/07/2023,09:34:25,0.650,1.0,1.022,0.011
27/07/2023,09:35:25,0.714,2.0,1.033,0.011
27/07/2023,09:36:25,0.692,2.0,1.045,0.012
27/07/2023,09:37:25,0.618,1.0,1.056,0.011
27/07/2023,09:38:25,0.548,1.0,1.066,0.01
27/07/2023,09:39:25,0.547,1.0,1.074,0.008
27/07/2023,09:40:25,0.562,1.0,1.084,0.01
27/07/2023,09:41:25,0.496,1.0,1.093,0.009
27/07/2023,09:42:25,0.580,1.0,1.102,0.009
27/07/2023,09:43:25,0.675,2.0,1.112,0.01
27/07/2023,09:44:25,0.624,1.0,1.123,0.011
27/07/2023,09:45:28,0.500,1.0,1.133,0.01
27/07/2023,09:46:26,0.440,1.0,1.14,0.007
27/07/2023,09:47:25,0.430,1.0,1.147,0.007
27/07/2023,09:48:25,0.512,1.0,1.155,0.008
27/07/2023,09:49:25,0.508,1.0,1.163,0.008
27/07/2023,09:50:24,0.492,1.0,1.172,0.009
27/07/2023,09:51:25,0.493,1.0,1.18,0.008
27/07/2023,09:52:25,0.418,1.0,1.188,0.008
27/07/2023,09:53:26,0.394,1.0,1.195,0.007